sat.trackr.live / text

‹ back to catalog

STARLINK-31152

NORAD 58734 · 2024-005G

PAYLOAD ACTIVE UNKNOWN

§ Identity

Operator
Country
US
Launch date
2024-01-07
Launch site
AFETR
Launch vehicle
Mass (kg)
RCS (m²)

Purposes: comms

External: N2YO · Heavens-Above · Gunter

§ Orbital elements

Epoch: 2026-09-20T12:26:25.409760Z

Period
94.27 min
Inclination
42.9991°
Eccentricity
0.0001110
Mean motion
15.27592194 rev/d
Perigee alt
482.3 km
Apogee alt
483.8 km
Semi-major
6,861.1 km
B*
3.9481e-5
RAAN
199.1672°
Arg perigee
269.6336°
Mean anomaly
90.4388°
Rev number
15,024

§ Raw data

STARLINK-311521 58734U 24005G   26263.51834965  .00000825  00000+0  39481-4 0  99912 58734  42.9991 199.1672 0001110 269.6336  90.4388 15.27592194150245

JSON: /api/v1/satellites/58734 · /tle

For live sub-satellite position, see the globe view (requires WebGL).

§ Visibility from observer

Set your observer location to see the next 7 days of passes ≥ 10°. The values pass through the URL so the page stays shareable.

No JS? Fill the form by hand. The geolocation button needs JavaScript.